Location: Poughquag
(41.6090°N, 73.6820°W)
Time: 14:53:32
(UTC-05:00)

ISS - Pass Details

Date: 23 January 2020
Orbit: 415 x 423 km, 51.6° (Epoch: 25 February)

Event Time Altitude Azimuth Distance (km) Brightness Sun altitude
Rises 19:19:32 0° 273° (W) 2,375 1.4 -26.2°
Reaches altitude 10° 19:21:58 10° 290° (WNW) 1,510 -0.1 -26.6°
Enters shadow 19:23:24 18° 311° (NW) 1,128 -1.1 -26.9°
